Location: Waco, TX
(31.5480°N, 97.1670°W)
Time: 18:24:37
(UTC-06:00)

ISS - Pass Details

Date: 18 January 2019
Orbit: 404 x 410 km, 51.6° (Epoch: 24 January)

Event Time Altitude Azimuth Distance (km) Brightness Sun altitude
Rises 03:44:34 0° 324° (NW) 2,339 - -47.2°
Reaches altitude 10° 03:46:48 10° 335° (NNW) 1,475 - -46.8°
Maximum altitude 03:49:48 32° 40° (NE) 734 - -46.1°
Drops below altitude 10° 03:52:48 10° 105° (ESE) 1,467 - -45.5°
Sets 03:55:01 0° 116° (ESE) 2,324 - -45.0°
